Погода в Легостаеве

Россия / Красноярский край     55°08′00″N   91°01′36″E
темп.,
°C
ветер,
м/с
пор.,
м/с
влажн.,
%
обл.,
%
осадки,
мм/ч
давл.,
гПа
погр.,
м
20 июня, вс
вс2001:00+15ююз228755 2.9 100024
04:00+15юв2187100 0.2 100011
07:00+17зюз3591100 2.0 1001213
10:00+18сз5788100 0.7 1002577
13:00+16сз3696100 2.0 1003365
16:00+15ссз6891100 0.3 1004537
19:00+13ссз51191100 0.4 1005547
22:00+11сз51195100 3.7 1008526
21 июня, пн
пн2101:00+10сз61394100 5.2 1009610
04:00+8зсз61293100 4.1 1010603
07:00+9з3891100 5.6 1012576
10:00+11зюз4580100 0.9 1012934
13:00+12ююз3370100 1.1 1012887
16:00+15ю346038 0.0 10111363
19:00+14ююв45735 0.0 1011954
22:00+9ююв359032 0.0 101285
22 июня, вт
вт2201:00+8в229135 0.0 101117
04:00+7юв119280 0.0 101111
07:00+10всв128179 0.0 1009161
10:00+14св226974 0.0 1007490
13:00+18в456042 0.0 1006981
16:00+20в4656100 0.0 10041151
19:00+11зсз4892100 3.8 1008239
22:00+10юз3493100 0.0 101199
23 июня, ср
ср2301:00+8ю2391100 0.0 101241
04:00+7ю238988 0.0 101356
07:00+10ююз26855 0.0 1013236
10:00+14юз566551 0.0 10121325
13:00+15юз3661100 0.1 10121507
16:00+16юз355797 0.1 10121567
19:00+16зсз236738 0.4 10121024
22:00+10ссв1181100 0.0 101210
24 июня, чт
чт2401:00+9св1186100 0.0 101110
04:00+8св2288100 0.0 101110
07:00+11всв24805 0.0 1010195
10:00+16в35685 0.0 1008770
13:00+18вюв33637 0.0 10071186
16:00+18всв2363100 0.7 1006814
19:00+17ссв3579100 3.3 1006212
22:00+12с2285100 0.4 100715